Simultaneous Nadir Overpasses (SNOs) Predictions

Prediction of SNOs between METOP-B and TERRA Satellite Orbit:

Table of predicted SNOs for the next 14.0 days since TLE Epoch: 8/25/2018
Index Date (METOP-B) Time (METOP-B) Lat,Lon (METOP-B) SZA (METOP-B ) Date (TERRA) Time (TERRA) Lat,Lon (TERRA) SZA (TERRA ) Distance(km) Time Diff (sec)
1 08/25/2018 10:55:02 -81.36,-115.68 106.47 08/25/2018 10:55:32 -81.35,-115.82 106.48 2.53 30
2 08/25/2018 11:45:42 81.36, 51.91 73.57 08/25/2018 11:44:58 81.36, 51.97 73.56 1.07 44
3 08/28/2018 06:29:21 -81.36, -49.10 105.46 08/28/2018 06:29:46 -81.36, -49.11 105.44 0.41 25
4 08/28/2018 07:20:00 81.37, 118.84 74.64 08/28/2018 07:19:12 81.37, 118.67 74.59 2.96 48
5 08/31/2018 02:03:40 -81.36, 17.08 104.46 08/31/2018 02:04:00 -81.36, 17.23 104.44 2.58 20
6 08/31/2018 02:54:19 81.36,-175.03 75.62 08/31/2018 02:53:26 81.37,-175.01 75.60 0.41 53
7 09/02/2018 21:37:59 -81.36, 83.63 103.41 09/02/2018 21:38:15 -81.35, 83.58 103.41 1.07 16
8 09/02/2018 22:28:38 81.36,-108.52 76.67 09/02/2018 22:27:41 81.36,-108.68 76.62 2.67 57
9 09/05/2018 17:12:18 -81.36, 150.18 102.33 09/05/2018 17:12:29 -81.37, 150.32 102.31 2.61 11




NCC Satellite Simultaneous Nadir Overpasses (SNOs) Prediction Service
